Location: Mount Kobau Star Party
(49.1167°N, 119.7333°W)
Time: 11:06:03
(UTC-07:00)

ARIANE 6 FM1 Upper Stage - Pass Details

Date: 20 April 2026
Orbit: 526 x 601 km, 62.0° (Epoch: 18 May)

Event Time Altitude Azimuth Distance (km) Brightness Sun altitude
Rises 00:12:33 0° 318° (NW) 2,677 7.0 -28.5°
Reaches altitude 10° 00:14:57 10° 328° (NNW) 1,778 6.1 -28.6°
Enters shadow 00:17:54 30° 13° (NNE) 975 4.3 -28.7°
